This is the latest recevied weather packets stored in our database for station/object KE4EST. If no packets are shown the sender has not sent any weather packets the latest 10 day(s).
| Time | Temp. | Humidity | Pressure | Rain* | Wind** | Luminosity | Snow |
|---|---|---|---|---|---|---|---|
| 1777920299 | 25° C | 40% | 1015.5 hPa | 0 mm | - | 649 W/m² | - |
| 1777919995 | 24.44° C | 43% | 1015.6 hPa | 0 mm | - | 632 W/m² | - |
| 1777919692 | 24.44° C | 41% | 1015.6 hPa | 0 mm | - | 660 W/m² | - |
| 1777919390 | 23.89° C | 41% | 1015.5 hPa | 0 mm | - | 583 W/m² | - |
| 1777919087 | 23.89° C | 40% | 1015.7 hPa | 0 mm | - | 614 W/m² | - |
| 1777918784 | 23.89° C | 42% | 1015.7 hPa | 0 mm | - | 681 W/m² | - |
| 1777918481 | 22.78° C | 45% | 1016.2 hPa | 0 mm | - | 632 W/m² | - |
| 1777918179 | 22.78° C | 43% | 1016.1 hPa | 0 mm | - | 639 W/m² | - |
| 1777917878 | 22.22° C | 44% | 1016.2 hPa | 0 mm | - | 569 W/m² | - |
| 1777917576 | 22.22° C | 45% | 1016 hPa | 0 mm | - | 578 W/m² | - |
| 1777917273 | 22.78° C | 45% | 1016.4 hPa | 0 mm | - | 553 W/m² | - |
| 1777916971 | 22.22° C | 44% | 1016.3 hPa | 0 mm | - | 594 W/m² | - |
| 1777916668 | 22.78° C | 45% | 1016.3 hPa | 0 mm | - | 667 W/m² | - |
| 1777916365 | 22.78° C | 45% | 1016.3 hPa | 0 mm | - | 401 W/m² | - |
| 1777916061 | 22.22° C | 46% | 1016.3 hPa | 0 mm | - | 433 W/m² | - |
| 1777915759 | 22.22° C | 47% | 1016.6 hPa | 0 mm | - | 415 W/m² | - |
| 1777915455 | 22.22° C | 47% | 1016.5 hPa | 0 mm | - | 487 W/m² | - |
| 1777915151 | 22.22° C | 45% | 1016.5 hPa | 0 mm | - | 587 W/m² | - |
| 1777914849 | 22.22° C | 45% | 1016.5 hPa | 0 mm | - | 240 W/m² | - |
| 1777914545 | 21.67° C | 46% | 1016.6 hPa | 0 mm | - | 106 W/m² | - |
| 1777914242 | 22.22° C | 45% | 1016.7 hPa | 0 mm | - | 616 W/m² | - |
| 1777913939 | 22.22° C | 45% | 1016.8 hPa | 0 mm | - | 608 W/m² | - |
| 1777913635 | 22.22° C | 45% | 1016.9 hPa | 0 mm | - | 120 W/m² | - |
| 1777913332 | 21.67° C | 45% | 1017 hPa | 0 mm | - | 431 W/m² | - |
| 1777913029 | 21.11° C | 47% | 1016.9 hPa | 0 mm | - | 246 W/m² | - |
* Rain latest hour (hover to see other rain measurements)
** Current wind speed in m/s (hover to see current wind gust speed)